Location: Carrières
(48.9495°N, 2.0407°E)
Time: 18:38:09
(UTC+00:00)

Cosmos 1606 Rocket - Pass Details

Date: 18 June 2024
Orbit: 599 x 628 km, 82.5° (Epoch: 15 July)

Event Time Altitude Azimuth Distance (km) Brightness Sun altitude
Rises 01:25:05 0° 355° (N) 2,926 8.2 -14.8°
Reaches altitude 10° 01:27:26 10° 2° (N) 2,011 7.3 -14.6°
Maximum altitude 01:31:41 43° 75° (ENE) 877 4.6 -14.4°
Drops below altitude 10° 01:35:53 10° 147° (SSE) 1,980 5.8 -14.1°
Enters shadow 01:36:32 - 150° (SSE) 2,230 6.1 -14.0°
